Change the Weather History Date:

Tuesday, December 3, 2013

  Actual Average Record
Temperature  
Mean Temperature 36 °F -  
Max Temperature 39 °F 43 °F 62 °F (1998)
Min Temperature 33 °F 27 °F 10 °F (2006)
Degree Days  
Heating Degree Days 29    
Moisture  
Dew Point 35 °F    
Average Humidity 95    
Maximum Humidity 100    
Minimum Humidity 81    
Precipitation  
Precipitation 0.00 in - - ()
Sea Level Pressure  
Sea Level Pressure 29.56 in    
Wind  
Wind Speed 7 mph (NE)    
Max Wind Speed 16 mph    
Max Gust Speed 17 mph    
Visibility 5 miles    
Events      
Averages and records for this station are not official NWS values.
T = Trace of Precipitation, MM = Missing Value Source: NWS Daily Summary

Daily Weather History Graph

Daily Weather History Graph

Search for Another Location

Airport or City:

Trip Planner

Search our weather history database for the weather conditions in past years. The results will help you decide how hot, cold, wet, or windy it might be!

Date:

Astronomy

Dec. 03, 2013 Rise Set
Actual Time 7:31 AM CST 4:54 PM CST
Civil Twilight 7:00 AM CST 5:25 PM CST
Nautical Twilight 6:26 AM CST 5:59 PM CST
Astronomical Twilight 5:53 AM CST 6:32 PM CST
Moon 8:01 AM CST (12/3) 5:59 PM CST (12/3)
Length of Visible Light 10h 24m
Length of Day
9h 22m
New Moon, 1% of the Moon is Illuminated
Dec 3
New Moon
Dec 9
First Quarter
Dec 17
Full
Dec 25
Last Quarter
Jan 1
New

Hourly Weather History & Observations

Time (CST) Temp. Windchill Dew Point Humidity Pressure Visibility Wind Dir Wind Speed Gust Speed Precip Events Conditions
12:15 AM 37.4 °F 32.1 °F 32.0 °F 81% 29.51 in 10.0 mi SE 6.9 mph - N/A   Clear
12:35 AM 37.4 °F 30.8 °F 33.8 °F 87% 29.51 in 10.0 mi SE 9.2 mph - N/A   Clear
12:55 AM 37.4 °F 31.4 °F 33.8 °F 87% 29.51 in 10.0 mi SE 8.1 mph - N/A   Clear
1:15 AM 35.6 °F 29.2 °F 33.8 °F 93% 29.50 in 10.0 mi SE 8.1 mph - N/A   Clear
1:35 AM 35.6 °F 30.7 °F 33.8 °F 93% 29.51 in 10.0 mi SE 5.8 mph - N/A   Clear
1:55 AM 35.6 °F 30.7 °F 33.8 °F 93% 29.51 in 10.0 mi SE 5.8 mph - N/A   Clear
2:15 AM 35.6 °F 30.7 °F 35.6 °F 100% 29.51 in 10.0 mi SE 5.8 mph - N/A   Clear
2:35 AM 35.6 °F 29.9 °F 35.6 °F 100% 29.51 in 10.0 mi SE 6.9 mph - N/A   Clear
2:55 AM 35.6 °F 31.7 °F 35.6 °F 100% 29.51 in 10.0 mi ESE 4.6 mph - N/A   Clear
3:15 AM 35.6 °F 30.7 °F 35.6 °F 100% 29.51 in 9.0 mi ESE 5.8 mph - N/A   Mostly Cloudy
3:35 AM 35.6 °F 29.9 °F 35.6 °F 100% 29.50 in 7.0 mi SE 6.9 mph - N/A   Scattered Clouds
3:55 AM 35.6 °F 29.9 °F 35.6 °F 100% 29.49 in 7.0 mi ESE 6.9 mph - N/A   Clear
4:15 AM 35.6 °F 29.9 °F 35.6 °F 100% 29.49 in 5.0 mi SE 6.9 mph - N/A   Partly Cloudy
4:35 AM 35.6 °F 30.7 °F 35.6 °F 100% 29.48 in 4.0 mi ESE 5.8 mph - N/A   Partly Cloudy
4:55 AM 35.6 °F 31.7 °F 35.6 °F 100% 29.49 in 5.0 mi South 4.6 mph - N/A   Partly Cloudy
5:15 AM 35.6 °F 31.7 °F 35.6 °F 100% 29.50 in 5.0 mi SE 4.6 mph - N/A   Partly Cloudy
5:35 AM 35.6 °F 31.7 °F 35.6 °F 100% 29.49 in 4.0 mi SE 4.6 mph - N/A   Scattered Clouds
5:55 AM 35.6 °F - 35.6 °F 100% 29.49 in 3.0 mi Calm Calm - N/A   Partly Cloudy
6:15 AM 33.8 °F 29.6 °F 33.8 °F 100% 29.49 in 3.0 mi NNE 4.6 mph - N/A   Scattered Clouds
6:35 AM 33.8 °F 30.8 °F 33.8 °F 100% 29.50 in 3.0 mi NNE 3.5 mph - N/A   Scattered Clouds
6:55 AM 33.8 °F - 33.8 °F 100% 29.50 in 3.0 mi Calm Calm - N/A   Mostly Cloudy
7:15 AM 33.8 °F 29.6 °F 33.8 °F 100% 29.50 in 2.0 mi ESE 4.6 mph - N/A   Overcast
7:35 AM 35.6 °F 32.8 °F 35.6 °F 100% 29.50 in 2.0 mi ESE 3.5 mph - N/A   Scattered Clouds
7:55 AM 33.8 °F 27.0 °F 33.8 °F 100% 29.51 in 1.8 mi North 8.1 mph - N/A   Scattered Clouds
8:15 AM 33.8 °F 26.4 °F 33.8 °F 100% 29.51 in 2.0 mi North 9.2 mph - N/A   Partly Cloudy
8:35 AM 33.8 °F 27.7 °F 33.8 °F 100% 29.51 in 2.0 mi NNE 6.9 mph - N/A   Clear
8:55 AM 35.6 °F 30.7 °F 35.6 °F 100% 29.52 in 3.0 mi North 5.8 mph - N/A   Clear
9:15 AM 35.6 °F 31.7 °F 35.6 °F 100% 29.53 in 4.0 mi North 4.6 mph - N/A   Scattered Clouds
9:35 AM 37.4 °F 34.9 °F 37.4 °F 100% 29.54 in 4.0 mi NE 3.5 mph - N/A   Mostly Cloudy
9:55 AM 39.2 °F 33.6 °F 39.2 °F 100% 29.54 in 5.0 mi North 8.1 mph - N/A   Overcast
10:15 AM 39.2 °F 33.0 °F 39.2 °F 100% 29.55 in 6.0 mi North 9.2 mph - N/A   Overcast
10:35 AM 39.2 °F 33.0 °F 39.2 °F 100% 29.57 in 6.0 mi North 9.2 mph 16.1 mph N/A   Overcast
10:55 AM 39.2 °F 34.2 °F 39.2 °F 100% 29.57 in 5.0 mi NNE 6.9 mph - N/A   Overcast
11:15 AM 39.2 °F 33.6 °F 39.2 °F 100% 29.57 in 5.0 mi North 8.1 mph 15.0 mph N/A   Overcast
11:35 AM 39.2 °F 32.5 °F 37.4 °F 93% 29.57 in 5.0 mi NNW 10.4 mph - N/A   Overcast
11:55 AM 39.2 °F 31.6 °F 37.4 °F 93% 29.56 in 5.0 mi NNE 12.7 mph - N/A   Overcast
12:15 PM 39.2 °F 30.8 °F 37.4 °F 93% 29.53 in 5.0 mi NNE 15.0 mph - N/A   Overcast
12:35 PM 39.2 °F 32.0 °F 35.6 °F 87% 29.55 in 6.0 mi North 11.5 mph - N/A   Haze
12:55 PM 39.2 °F 30.8 °F 35.6 °F 87% 29.54 in 5.0 mi North 15.0 mph - N/A   Overcast
1:15 PM 39.2 °F 32.0 °F 35.6 °F 87% 29.55 in 5.0 mi North 11.5 mph - N/A   Overcast
1:35 PM 39.2 °F 32.5 °F 35.6 °F 87% 29.55 in 5.0 mi North 10.4 mph - N/A   Overcast
1:55 PM 39.2 °F 33.0 °F 35.6 °F 87% 29.56 in 5.0 mi North 9.2 mph - N/A   Overcast
2:15 PM 39.2 °F 32.5 °F 35.6 °F 87% 29.57 in 5.0 mi North 10.4 mph - N/A   Overcast
2:35 PM 39.2 °F 31.6 °F 35.6 °F 87% 29.57 in 5.0 mi NNE 12.7 mph - N/A   Overcast
2:55 PM 39.2 °F 32.0 °F 35.6 °F 87% 29.58 in 5.0 mi NNE 11.5 mph - N/A   Overcast
3:15 PM 37.4 °F 29.8 °F 35.6 °F 93% 29.58 in 5.0 mi NNE 11.5 mph - N/A   Mostly Cloudy
3:35 PM 37.4 °F 32.1 °F 35.6 °F 93% 29.59 in 5.0 mi North 6.9 mph - N/A   Clear
3:55 PM 39.2 °F 35.9 °F 35.6 °F 87% 29.60 in 5.0 mi NNE 4.6 mph - N/A   Clear
4:15 PM 39.2 °F 35.0 °F 35.6 °F 87% 29.60 in 5.0 mi North 5.8 mph - N/A   Clear
4:35 PM 37.4 °F - 35.6 °F 93% 29.61 in 5.0 mi Calm Calm - N/A   Clear
4:55 PM 37.4 °F - 35.6 °F 93% 29.59 in 4.0 mi Calm Calm - N/A   Partly Cloudy
5:15 PM 37.4 °F - 35.6 °F 93% 29.60 in 5.0 mi Calm Calm - N/A   Clear
5:35 PM 35.6 °F 29.9 °F 33.8 °F 93% 29.59 in 5.0 mi ENE 6.9 mph - N/A   Partly Cloudy
5:55 PM 35.6 °F 31.7 °F 33.8 °F 93% 29.61 in 5.0 mi NE 4.6 mph - N/A   Partly Cloudy
6:15 PM 35.6 °F 32.8 °F 33.8 °F 93% 29.63 in 5.0 mi NNE 3.5 mph - N/A   Scattered Clouds
6:35 PM 35.6 °F 29.2 °F 33.8 °F 93% 29.64 in 5.0 mi North 8.1 mph - N/A   Overcast
6:55 PM 35.6 °F 29.2 °F 33.8 °F 93% 29.65 in 5.0 mi North 8.1 mph - N/A   Overcast
7:15 PM 37.4 °F 30.3 °F 35.6 °F 93% 29.65 in 6.0 mi North 10.4 mph - N/A   Overcast
7:35 PM 37.4 °F 30.8 °F 35.6 °F 93% 29.64 in 7.0 mi NNE 9.2 mph - N/A   Overcast
7:55 PM 37.4 °F 28.9 °F 35.6 °F 93% 29.63 in 8.0 mi NNE 13.8 mph - N/A   Overcast
8:15 PM 37.4 °F 29.3 °F 35.6 °F 93% 29.63 in 7.0 mi NNE 12.7 mph - N/A   Overcast
8:35 PM 37.4 °F 29.8 °F 35.6 °F 93% 29.65 in 7.0 mi North 11.5 mph 17.3 mph N/A   Overcast
8:55 PM 37.4 °F 28.2 °F 35.6 °F 93% 29.64 in 6.0 mi NNE 16.1 mph - N/A   Overcast
9:15 PM 35.6 °F 26.6 °F 35.6 °F 100% 29.64 in 5.0 mi NNE 13.8 mph - N/A   Overcast
9:35 PM 35.6 °F 26.6 °F 35.6 °F 100% 29.65 in 5.0 mi North 13.8 mph - N/A   Overcast
9:55 PM 35.6 °F 28.0 °F 35.6 °F 100% 29.65 in 6.0 mi North 10.4 mph 17.3 mph N/A   Overcast
10:15 PM 35.6 °F 28.0 °F 35.6 °F 100% 29.64 in 4.0 mi North 10.4 mph - N/A   Overcast
10:35 PM 35.6 °F 29.2 °F 35.6 °F 100% 29.65 in 2.5 mi North 8.1 mph - N/A   Overcast
10:55 PM 33.8 °F 26.4 °F 33.8 °F 100% 29.65 in 1.5 mi North 9.2 mph - N/A   Overcast
11:15 PM 33.8 °F 26.4 °F 33.8 °F 100% 29.65 in 1.0 mi North 9.2 mph - N/A   Overcast
11:35 PM 33.8 °F 26.4 °F 33.8 °F 100% 29.65 in 0.8 mi North 9.2 mph - N/A   Overcast
11:55 PM 33.8 °F 28.6 °F 33.8 °F 100% 29.66 in 0.5 mi NNW 5.8 mph - N/A   Overcast